Location: Pescara
(42.4670°N, 14.2170°E)
Time: 02:52:56
(UTC+02:00)

ISS - Pass Details

Date: 19 May 2021
Orbit: 417 x 422 km, 51.6° (Epoch: 14 June)

Event Time Altitude Azimuth Distance (km) Brightness Sun altitude
Rises 23:43:22 0° 300° (WNW) 2,368 0.8 -25.1°
Reaches altitude 10° 23:45:58 10° 321° (NW) 1,504 0.0 -25.3°
Maximum altitude 23:48:20 18° 5° (N) 1,130 -0.9 -25.4°
Enters shadow 23:50:24 11° 46° (NE) 1,424 -0.8 -25.6°
